[ show orbit diagram ]
Orbital Elements at Epoch 2459200.5 (2020-Dec-17.0) TDB
Reference: JPL 37 (heliocentric ecliptic J2000)
Element | Value | Uncertainty (1-sigma) | Units |
e | .1577922006164809 | 3.9662e-08 | |
a | 2.566793312790633 | 9.194e-09 | au |
q | 2.161773347437732 | 1.0191e-07 | au |
i | 9.142720827645729 | 4.4477e-06 | deg |
node | 97.84960568827908 | 2.5584e-05 | deg |
peri | 358.1826918707329 | 3.0105e-05 | deg |
M | 95.47365181456296 | 1.4229e-05 | deg |
tp | 2458802.149093997979 (2019-Nov-14.64909400) | 5.9423e-05 | TDB |
period | 1502.051334951173 4.11 | 8.0703e-06 2.21e-08 | d yr |
n | .2396722346454974 | 1.2877e-09 | deg/d |
Q | 2.971813278143535 | 1.0645e-08 | au |
|
| | Orbit Determination Parameters
Additional Information
|
[ show covariance matrix ]
Physical Parameter Table
Parameter |
Symbol |
Value |
Units |
Sigma |
Reference |
Notes |
absolute magnitude |
H |
12.52 |
|
n/a |
E2021B10 |
|
diameter |
diameter |
8.444 |
km |
0.104 |
urn:nasa:pds:neowise_diameters_albedos::2.0[mainbelt] (http://adsabs.harvard.edu/abs/2011ApJ...741...68M) |
|
rotation period |
rot_per |
5.755 |
h |
n/a |
LCDB (Rev. 2020-October); Warner et al., 2009 |
Published Reference List: [Behrend, R. (2012) Observatoire de Geneve web site, http://obswww.unige.ch/~behrend/page_cou.html] |
geometric albedo |
albedo |
0.347 |
|
0.043 |
urn:nasa:pds:neowise_diameters_albedos::2.0[mainbelt] (http://adsabs.harvard.edu/abs/2012ApJ...759L...8M) |
|
|
6886 Grote | Discovered 1942 Feb. 11 by L. Oterma at Turku. |
Named in honor of Grote Reber (b. 1911), pioneer radioastronomer. A radio engineer by profession, he became intrigued by Jansky's 1932 detection of radio waves of extraterrestrial origin. From a series of homemade radio receivers and a 9.4-m parabolic dish antenna in his backyard in Wheaton, Illinois, Reber obtained the first detailed quantitative maps of the radio sky and published these in a series of papers during the 1940s. His stunning results gradually opened the consciousness of others to this very powerful method of observing the universe. Name suggested and citation prepared by G. C. L. Aikman. |
NOTE: some special characters may not display properly (any characters within {} are an attempt to place the proper accent above a character) |
Reference: 19961224/MPCPages.arc | Last Updated: 2003-09-26 |
|
Alternate Designations
1942 CG = 1982 YH5 = 1990 XO |
|
|
|